Date String (YYYY-MM-DD hh:mm:ss) UTC,Instrument flags,Ambient pressure (hPa),Sample flow (lpm),Bypass flow (lpm),Sample temperature (°C),Ambient temperature (°C),ASC tube jacket temperature (°C),LED temperature (°C),Box temperature (°C),Sample RH (%),Span deviation,Mass concentration (μg/m³),Mass concentration (μg/m³),Mass concentration (μg/m³)
DateTimeUTC,F1_M11,P_M11,Q1_M11,Q2_M11,T1_M11,T2_M11,T3_M11,T4_M11,T5_M11,U1_M11,ZSPAN_M11,X2_M11,X0_M11,X1_M11
2023-05-19 13:00:00,,0837.1,4.99,0.00,27.7,26.1,00.0,36.0,29.3,25.2,0003.7,0088.15,0112.48,0085.19
2023-05-19 13:01:00,,0837.1,5.01,0.00,27.7,26.1,00.0,36.0,29.3,25.0,0003.7,0088.17,0111.57,0085.16
2023-05-19 13:02:00,,0837.1,5.00,0.00,27.7,26.1,00.0,36.0,29.3,24.9,0003.6,0088.05,0111.44,0085.05
2023-05-19 13:03:00,,0837.1,5.00,0.00,27.7,26.1,00.0,36.0,29.3,25.0,0003.6,0087.95,0111.40,0084.92
2023-05-19 13:04:00,,0837.2,5.00,0.00,27.7,26.1,00.0,36.0,29.3,24.9,0003.5,0087.85,0111.39,0084.84
2023-05-19 13:05:00,,0837.2,5.00,0.00,27.7,26.1,00.0,36.0,29.4,24.9,0003.4,0087.77,0111.41,0084.77
2023-05-19 13:06:00,,0837.2,5.00,0.00,27.7,26.1,00.0,36.0,29.4,25.4,0003.3,0087.60,0111.15,0084.65
2023-05-19 13:07:00,,0837.2,5.00,0.00,27.7,26.1,00.0,36.0,29.4,25.3,0003.3,0087.44,0110.62,0084.52
2023-05-19 13:08:00,,0837.2,4.99,0.00,27.7,26.1,00.0,36.0,29.4,25.2,0003.3,0087.23,0110.15,0084.39
2023-05-19 13:09:00,,0837.3,5.00,0.00,27.7,26.1,00.0,36.0,29.4,25.2,0003.3,0087.14,0110.23,0084.28
2023-05-19 13:10:00,,0837.2,5.00,0.00,27.7,26.1,00.0,36.0,29.4,24.9,0003.3,0087.29,0110.54,0084.40
2023-05-19 13:11:00,,0837.2,4.99,0.00,27.7,26.1,00.0,36.0,29.4,24.8,0003.3,0087.64,0111.22,0084.77
2023-05-19 13:12:00,,0837.2,5.01,0.00,27.7,26.1,00.0,36.0,29.4,25.0,0003.3,0087.80,0111.56,0084.96
2023-05-19 13:13:00,,0837.2,5.00,0.00,27.7,26.1,00.0,36.0,29.4,24.9,0003.4,0088.06,0111.92,0085.17
2023-05-19 13:14:00,,0837.2,5.01,0.00,27.7,26.1,00.0,36.0,29.4,24.8,0003.5,0088.29,0112.15,0085.39
2023-05-19 13:15:00,,0837.3,5.00,0.00,27.7,26.1,00.0,36.0,29.4,24.4,0003.4,0088.71,0113.31,0085.75
2023-05-19 13:16:00,,0837.3,5.00,0.00,27.7,26.1,00.0,36.0,29.4,24.4,0003.5,0089.04,0113.94,0086.07
2023-05-19 13:17:00,,0837.3,4.99,0.00,27.7,26.1,00.0,36.0,29.4,24.7,0003.4,0089.33,0114.26,0086.36
2023-05-19 13:18:00,,0837.3,5.00,0.00,27.7,26.1,00.0,36.0,29.4,25.0,0003.5,0089.66,0114.86,0086.63
2023-05-19 13:19:00,,0837.4,5.01,0.00,27.7,26.1,00.0,36.0,29.4,24.7,0003.5,0090.09,0116.19,0086.99
2023-05-19 13:20:00,,0837.4,5.00,0.00,27.7,26.1,00.0,36.0,29.4,24.4,0003.5,0090.54,0117.36,0087.40
2023-05-19 13:21:00,,0837.4,5.00,0.00,27.7,26.1,00.0,36.0,29.4,24.6,0003.4,0090.84,0118.10,0087.68
2023-05-19 13:22:00,,0837.4,4.98,0.00,27.7,26.1,00.0,36.1,29.4,25.1,0003.4,0090.87,0118.79,0087.66
2023-05-19 13:23:00,,0837.4,5.00,0.00,27.7,26.1,00.0,36.1,29.4,25.5,0003.3,0090.92,0118.69,0087.65
2023-05-19 13:24:00,,0837.4,5.01,0.00,27.7,26.1,00.0,36.1,29.4,25.7,0003.3,0090.92,0119.11,0087.61
2023-05-19 13:25:00,,0837.4,5.01,0.00,27.7,26.1,00.0,36.1,29.4,26.0,0003.3,0090.79,0119.38,0087.54
2023-05-19 13:26:00,,0837.5,5.01,0.00,27.8,26.1,00.0,36.1,29.4,26.1,0003.3,0090.64,0119.17,0087.40
2023-05-19 13:27:00,,0837.5,5.00,0.00,27.8,26.1,00.0,36.1,29.4,25.8,0003.3,0090.50,0118.74,0087.25
2023-05-19 13:28:00,,0837.6,4.99,0.00,27.8,26.1,00.0,36.1,29.4,26.5,0003.3,0090.26,0118.36,0087.06
2023-05-19 13:29:00,,0837.6,5.00,0.00,27.8,26.1,00.0,36.1,29.4,27.6,0003.2,0089.36,0117.07,0086.28
2023-05-19 13:30:00,,0837.6,5.00,0.00,27.7,26.1,00.0,36.1,29.4,27.4,0003.2,0088.53,0115.46,0085.54
2023-05-19 13:31:00,,0837.6,5.00,0.00,27.7,26.1,00.0,36.1,29.4,27.8,0003.3,0087.63,0113.71,0084.65
2023-05-19 13:32:00,,0837.6,5.00,0.00,27.7,26.1,00.0,36.1,29.4,27.5,0003.3,0086.70,0112.17,0083.76
2023-05-19 13:33:00,,0837.7,5.01,0.00,27.7,26.1,00.0,36.1,29.4,27.5,0003.3,0086.02,0111.20,0083.11
2023-05-19 13:34:00,,0837.6,5.00,0.00,27.7,26.1,00.0,36.1,29.3,27.1,0003.4,0085.62,0110.68,0082.78
2023-05-19 13:35:00,,0837.6,4.99,0.00,27.7,26.1,00.0,36.1,29.3,26.8,0003.4,0085.30,0110.17,0082.45
2023-05-19 13:36:00,,0837.6,4.99,0.00,27.7,26.1,00.0,36.1,29.3,26.8,0003.4,0085.03,0109.60,0082.18
2023-05-19 13:37:00,,0837.6,5.00,0.00,27.7,26.1,00.0,36.0,29.3,27.0,0003.3,0084.57,0108.53,0081.73
2023-05-19 13:38:00,,0837.6,5.01,0.00,27.7,26.1,00.0,36.0,29.3,26.4,0003.4,0084.24,0108.71,0081.40
2023-05-19 13:39:00,,0837.6,5.00,0.00,27.7,26.1,00.0,36.0,29.3,25.8,0003.4,0084.24,0108.64,0081.41
2023-05-19 13:40:00,,0837.6,5.01,0.00,27.7,26.1,00.0,36.0,29.3,25.8,0003.5,0084.98,0109.54,0082.04
2023-05-19 13:41:00,,0837.7,5.00,0.00,27.7,26.1,00.0,36.0,29.3,25.9,0003.5,0085.45,0110.12,0082.51
2023-05-19 13:42:00,,0837.7,4.98,0.00,27.7,26.1,00.0,36.0,29.3,26.2,0003.5,0085.88,0110.44,0082.97
2023-05-19 13:43:00,,0837.7,5.01,0.00,27.7,26.1,00.0,36.0,29.3,26.4,0003.5,0086.26,0110.84,0083.41
2023-05-19 13:44:00,,0837.7,5.00,0.00,27.7,26.1,00.0,36.0,29.3,26.1,0003.5,0086.68,0111.00,0083.79
2023-05-19 13:45:00,,0837.7,5.00,0.00,27.7,26.1,00.0,36.0,29.4,26.2,0003.4,0086.92,0111.42,0084.02
2023-05-19 13:46:00,,0837.7,5.00,0.00,27.7,26.1,00.0,36.0,29.4,26.4,0003.4,0086.97,0111.34,0084.09
2023-05-19 13:47:00,,0837.7,4.99,0.00,27.7,26.2,00.0,36.0,29.4,26.7,0003.4,0087.01,0111.16,0084.14
2023-05-19 13:48:00,,0837.7,4.99,0.00,27.7,26.2,00.0,36.0,29.4,26.9,0003.4,0087.11,0111.39,0084.26
2023-05-19 13:49:00,,0837.7,5.00,0.00,27.7,26.2,00.0,36.1,29.4,27.1,0003.5,0087.04,0110.47,0084.19
2023-05-19 13:50:00,,0837.7,5.00,0.00,27.7,26.2,00.0,36.1,29.4,27.3,0003.5,0086.63,0109.84,0083.78
2023-05-19 13:51:00,,0837.8,5.01,0.00,27.7,26.2,00.0,36.1,29.4,27.4,0003.4,0086.26,0109.42,0083.42
2023-05-19 13:52:00,,0837.8,4.99,0.00,27.7,26.2,00.0,36.1,29.4,27.7,0003.4,0086.05,0109.24,0083.18
2023-05-19 13:53:00,,0837.8,5.00,0.00,27.7,26.2,00.0,36.1,29.4,27.7,0003.4,0085.93,0109.19,0082.98
2023-05-19 13:54:00,,0837.8,5.01,0.00,27.7,26.2,00.0,36.1,29.4,27.5,0003.3,0085.97,0109.46,0082.96
2023-05-19 13:55:00,,0837.8,5.01,0.00,27.7,26.2,00.0,36.1,29.4,27.4,0003.3,0086.03,0109.58,0083.02
2023-05-19 13:56:00,,0837.8,4.98,0.00,27.7,26.2,00.0,36.1,29.4,27.4,0003.4,0085.96,0109.43,0082.94
2023-05-19 13:57:00,,0837.8,5.00,0.00,27.7,26.2,00.0,36.1,29.4,27.3,0003.4,0086.15,0109.62,0083.11
2023-05-19 13:58:00,,0837.8,4.99,0.00,27.7,26.2,00.0,36.1,29.4,27.5,0003.4,0086.22,0109.78,0083.19
2023-05-19 13:59:00,,0837.8,5.01,0.00,27.7,26.2,00.0,36.1,29.4,27.0,0003.4,0086.55,0110.09,0083.51
